Year,Month,Day,Hour,Minute,Value (Times are PST for temperature in C)
2007,05,30,00,00,14.20
2007,05,30,00,01,14.20
2007,05,30,00,02,14.20
2007,05,30,00,03,14.20
2007,05,30,00,04,14.20
2007,05,30,00,05,14.20
2007,05,30,00,06,14.20
2007,05,30,00,07,14.20
2007,05,30,00,08,14.20
2007,05,30,00,09,14.20
2007,05,30,00,10,14.20
2007,05,30,00,11,14.20
2007,05,30,00,12,14.20
2007,05,30,00,13,14.20
2007,05,30,00,14,14.20
2007,05,30,00,15,14.20
2007,05,30,00,16,14.20
2007,05,30,00,17,14.20
2007,05,30,00,18,14.10
2007,05,30,00,19,14.00
2007,05,30,00,20,14.00
2007,05,30,00,21,14.00
2007,05,30,00,22,14.00
2007,05,30,00,23,14.00
2007,05,30,00,24,14.00
2007,05,30,00,25,14.00
2007,05,30,00,26,14.00
2007,05,30,00,27,13.90
2007,05,30,00,28,13.90
2007,05,30,00,29,13.90
2007,05,30,00,30,13.90
2007,05,30,00,31,13.90
2007,05,30,00,32,13.80
2007,05,30,00,33,13.80
2007,05,30,00,34,13.80
2007,05,30,00,35,13.80
2007,05,30,00,36,13.80
2007,05,30,00,37,13.80
2007,05,30,00,38,13.80
2007,05,30,00,39,13.80
2007,05,30,00,40,13.80
2007,05,30,00,41,13.80
2007,05,30,00,42,13.80
2007,05,30,00,43,13.70
2007,05,30,00,44,13.70
2007,05,30,00,45,13.70
2007,05,30,00,46,13.70
2007,05,30,00,47,13.70
2007,05,30,00,48,13.70
2007,05,30,00,49,13.70
2007,05,30,00,50,13.60
2007,05,30,00,51,13.60
2007,05,30,00,52,13.50
2007,05,30,00,53,13.50
2007,05,30,00,54,13.50
2007,05,30,00,55,13.50
2007,05,30,00,56,13.50
2007,05,30,00,57,13.50
2007,05,30,00,58,13.50
2007,05,30,00,59,13.50
2007,05,30,01,00,13.50
2007,05,30,01,01,13.60
2007,05,30,01,02,13.60
2007,05,30,01,03,13.60
2007,05,30,01,04,13.60
2007,05,30,01,05,13.60
2007,05,30,01,06,13.60
2007,05,30,01,07,13.60
2007,05,30,01,08,13.60
2007,05,30,01,09,13.70
2007,05,30,01,10,13.70
2007,05,30,01,11,13.70
2007,05,30,01,12,13.70
2007,05,30,01,13,13.70
2007,05,30,01,14,13.70
2007,05,30,01,15,13.70
2007,05,30,01,16,13.70
2007,05,30,01,17,13.70
2007,05,30,01,18,13.70
2007,05,30,01,19,13.70
2007,05,30,01,20,13.60
2007,05,30,01,21,13.60
2007,05,30,01,22,13.60
2007,05,30,01,23,13.50
2007,05,30,01,24,13.50
2007,05,30,01,25,13.50
2007,05,30,01,26,13.50
2007,05,30,01,27,13.50
2007,05,30,01,28,13.60
2007,05,30,01,29,13.60
2007,05,30,01,30,13.60
2007,05,30,01,31,13.50
2007,05,30,01,32,13.50
2007,05,30,01,33,13.50
2007,05,30,01,34,13.50
2007,05,30,01,35,13.40
2007,05,30,01,36,13.40
2007,05,30,01,37,13.40
2007,05,30,01,38,13.40
2007,05,30,01,39,13.50
2007,05,30,01,40,13.50
2007,05,30,01,41,13.50
2007,05,30,01,42,13.50
2007,05,30,01,43,13.50
2007,05,30,01,44,13.50
2007,05,30,01,45,13.50
2007,05,30,01,46,13.50
2007,05,30,01,47,13.50
2007,05,30,01,48,13.40
2007,05,30,01,49,13.40
2007,05,30,01,50,13.40
2007,05,30,01,51,13.30
2007,05,30,01,52,13.30
2007,05,30,01,53,13.30
2007,05,30,01,54,13.30
2007,05,30,01,55,13.30
2007,05,30,01,56,13.30
2007,05,30,01,57,13.20
2007,05,30,01,58,13.20
2007,05,30,01,59,13.20
2007,05,30,02,00,13.20
2007,05,30,02,01,13.20
2007,05,30,02,02,13.10
2007,05,30,02,03,13.10
2007,05,30,02,04,13.10
2007,05,30,02,05,13.10
2007,05,30,02,06,13.10
2007,05,30,02,07,13.00
2007,05,30,02,08,13.00
2007,05,30,02,09,13.00
2007,05,30,02,10,13.00
2007,05,30,02,11,12.90
2007,05,30,02,12,12.90
2007,05,30,02,13,12.90
2007,05,30,02,14,12.90
2007,05,30,02,15,12.80
2007,05,30,02,16,12.80
2007,05,30,02,17,12.80
2007,05,30,02,18,12.80
2007,05,30,02,19,12.80
2007,05,30,02,20,12.80
2007,05,30,02,21,12.70
2007,05,30,02,22,12.70
2007,05,30,02,23,12.60
2007,05,30,02,24,12.50
2007,05,30,02,25,12.50
2007,05,30,02,26,12.40
2007,05,30,02,27,12.40
2007,05,30,02,28,12.30
2007,05,30,02,29,12.30
2007,05,30,02,30,12.30
2007,05,30,02,31,12.20
2007,05,30,02,32,12.10
2007,05,30,02,33,12.10
2007,05,30,02,34,12.00
2007,05,30,02,35,12.00
2007,05,30,02,36,11.90
2007,05,30,02,37,11.90
2007,05,30,02,38,11.80
2007,05,30,02,39,11.80
2007,05,30,02,40,11.80
2007,05,30,02,41,11.80
2007,05,30,02,42,11.80
2007,05,30,02,43,11.80
2007,05,30,02,44,11.80
2007,05,30,02,45,11.80
2007,05,30,02,46,11.90
2007,05,30,02,47,11.90
2007,05,30,02,48,11.90
2007,05,30,02,49,12.00
2007,05,30,02,50,12.00
2007,05,30,02,51,12.10
2007,05,30,02,52,12.10
2007,05,30,02,53,12.20
2007,05,30,02,54,12.20
2007,05,30,02,55,12.30
2007,05,30,02,56,12.30
2007,05,30,02,57,12.30
2007,05,30,02,58,12.40
2007,05,30,02,59,12.40
2007,05,30,03,00,12.40
2007,05,30,03,01,12.40
2007,05,30,03,02,12.40
2007,05,30,03,03,12.40
2007,05,30,03,04,12.40
2007,05,30,03,05,12.40
2007,05,30,03,06,12.40
2007,05,30,03,07,12.40
2007,05,30,03,08,12.40
2007,05,30,03,09,12.30
2007,05,30,03,10,12.30
2007,05,30,03,11,12.30
2007,05,30,03,12,12.30
2007,05,30,03,13,12.30
2007,05,30,03,14,12.30
2007,05,30,03,15,12.30
2007,05,30,03,16,12.30
2007,05,30,03,17,12.30
2007,05,30,03,18,12.30
2007,05,30,03,19,12.30
2007,05,30,03,20,12.30
2007,05,30,03,21,12.30
2007,05,30,03,22,12.30
2007,05,30,03,23,12.30
2007,05,30,03,24,12.30
2007,05,30,03,25,12.30
2007,05,30,03,26,12.20
2007,05,30,03,27,12.20
2007,05,30,03,28,12.20
2007,05,30,03,29,12.10
2007,05,30,03,30,12.10
2007,05,30,03,31,12.00
2007,05,30,03,32,12.00
2007,05,30,03,33,11.90
2007,05,30,03,34,11.90
2007,05,30,03,35,11.80
2007,05,30,03,36,11.80
2007,05,30,03,37,11.80
2007,05,30,03,38,11.80
2007,05,30,03,39,11.80
2007,05,30,03,40,11.80
2007,05,30,03,41,11.80
2007,05,30,03,42,11.70
2007,05,30,03,43,11.70
2007,05,30,03,44,11.70
2007,05,30,03,45,11.70
2007,05,30,03,46,11.70
2007,05,30,03,47,11.60
2007,05,30,03,48,11.60
2007,05,30,03,49,11.60
2007,05,30,03,50,11.60
2007,05,30,03,51,11.60
2007,05,30,03,52,11.60
2007,05,30,03,53,11.50
2007,05,30,03,54,11.40
2007,05,30,03,55,11.40
2007,05,30,03,56,11.40
2007,05,30,03,57,11.40
2007,05,30,03,58,11.40
2007,05,30,03,59,11.40
2007,05,30,04,00,11.40
2007,05,30,04,01,11.40
2007,05,30,04,02,11.40
2007,05,30,04,03,11.30
2007,05,30,04,04,11.30
2007,05,30,04,05,11.30
2007,05,30,04,06,11.30
2007,05,30,04,07,11.30
2007,05,30,04,08,11.30
2007,05,30,04,09,11.30
2007,05,30,04,10,11.30
2007,05,30,04,11,11.30
2007,05,30,04,12,11.30
2007,05,30,04,13,11.30
2007,05,30,04,14,11.30
2007,05,30,04,15,11.30
2007,05,30,04,16,11.30
2007,05,30,04,17,11.30
2007,05,30,04,18,11.30
2007,05,30,04,19,11.30
2007,05,30,04,20,11.30
2007,05,30,04,21,11.30
2007,05,30,04,22,11.30
2007,05,30,04,23,11.30
2007,05,30,04,24,11.30
2007,05,30,04,25,11.30
2007,05,30,04,26,11.30
2007,05,30,04,27,11.30
2007,05,30,04,28,11.30
2007,05,30,04,29,11.30
2007,05,30,04,30,11.30
2007,05,30,04,31,11.30
2007,05,30,04,32,11.20
2007,05,30,04,33,11.20
2007,05,30,04,34,11.20
2007,05,30,04,35,11.20
2007,05,30,04,36,11.20
2007,05,30,04,37,11.10
2007,05,30,04,38,11.10
2007,05,30,04,39,11.10
2007,05,30,04,40,11.10
2007,05,30,04,41,11.10
2007,05,30,04,42,11.10
2007,05,30,04,43,11.10
2007,05,30,04,44,11.10
2007,05,30,04,45,11.00
2007,05,30,04,46,10.90
2007,05,30,04,47,10.90
2007,05,30,04,48,10.90
2007,05,30,04,49,10.90
2007,05,30,04,50,10.90
2007,05,30,04,51,10.90
2007,05,30,04,52,10.90
2007,05,30,04,53,10.90
2007,05,30,04,54,10.90
2007,05,30,04,55,10.90
2007,05,30,04,56,10.90
2007,05,30,04,57,10.90
2007,05,30,04,58,10.80
2007,05,30,04,59,10.80
2007,05,30,05,00,10.80
2007,05,30,05,01,10.80
2007,05,30,05,02,10.80
2007,05,30,05,03,10.80
2007,05,30,05,04,10.80
2007,05,30,05,05,10.80
2007,05,30,05,06,10.80
2007,05,30,05,07,10.80
2007,05,30,05,08,10.80
2007,05,30,05,09,10.80
2007,05,30,05,10,10.70
2007,05,30,05,11,10.70
2007,05,30,05,12,10.70
2007,05,30,05,13,10.70
2007,05,30,05,14,10.60
2007,05,30,05,15,10.60
2007,05,30,05,16,10.60
2007,05,30,05,17,10.60
2007,05,30,05,18,10.60
2007,05,30,05,19,10.60
2007,05,30,05,20,10.60
2007,05,30,05,21,10.40
2007,05,30,05,22,10.40
2007,05,30,05,23,10.40
2007,05,30,05,24,10.40
2007,05,30,05,25,10.40
2007,05,30,05,26,10.40
2007,05,30,05,27,10.40
2007,05,30,05,28,10.40
2007,05,30,05,29,10.40
2007,05,30,05,30,10.30
2007,05,30,05,31,10.30
2007,05,30,05,32,10.30
2007,05,30,05,33,10.30
2007,05,30,05,34,10.30
2007,05,30,05,35,10.30
2007,05,30,05,36,10.30
2007,05,30,05,37,10.30
2007,05,30,05,38,10.30
2007,05,30,05,39,10.30
2007,05,30,05,40,10.30
2007,05,30,05,41,10.30
2007,05,30,05,42,10.30
2007,05,30,05,43,10.40
2007,05,30,05,44,10.40
2007,05,30,05,45,10.40
2007,05,30,05,46,10.40
2007,05,30,05,47,10.40
2007,05,30,05,48,10.40
2007,05,30,05,49,10.40
2007,05,30,05,50,10.40
2007,05,30,05,51,10.40
2007,05,30,05,52,10.40
2007,05,30,05,53,10.40
2007,05,30,05,54,10.40
2007,05,30,05,55,10.50
2007,05,30,05,56,10.60
2007,05,30,05,57,10.60
2007,05,30,05,58,10.60
2007,05,30,05,59,10.60
2007,05,30,06,00,10.60
2007,05,30,06,01,10.60
2007,05,30,06,02,10.60
2007,05,30,06,03,10.70
2007,05,30,06,04,10.70
2007,05,30,06,05,10.70
2007,05,30,06,06,10.80
2007,05,30,06,07,10.80
2007,05,30,06,08,10.90
2007,05,30,06,09,10.90
2007,05,30,06,10,10.90
2007,05,30,06,11,10.90
2007,05,30,06,12,10.90
2007,05,30,06,13,10.90
2007,05,30,06,14,11.00
2007,05,30,06,15,11.10
2007,05,30,06,16,11.10
2007,05,30,06,17,11.10
2007,05,30,06,18,11.20
2007,05,30,06,19,11.20
2007,05,30,06,20,11.30
2007,05,30,06,21,11.30
2007,05,30,06,22,11.40
2007,05,30,06,23,11.40
2007,05,30,06,24,11.60
2007,05,30,06,25,11.60
2007,05,30,06,26,11.70
2007,05,30,06,27,11.80
2007,05,30,06,28,11.80
2007,05,30,06,29,11.80
2007,05,30,06,30,11.90
2007,05,30,06,31,11.90
2007,05,30,06,32,12.00
2007,05,30,06,33,12.00
2007,05,30,06,34,12.00
2007,05,30,06,35,12.00
2007,05,30,06,36,12.10
2007,05,30,06,37,12.10
2007,05,30,06,38,12.20
2007,05,30,06,39,12.20
2007,05,30,06,40,12.20
2007,05,30,06,41,12.20
2007,05,30,06,42,12.20
2007,05,30,06,43,12.20
2007,05,30,06,44,12.20
2007,05,30,06,45,12.20
2007,05,30,06,46,12.20
2007,05,30,06,47,12.30
2007,05,30,06,48,12.30
2007,05,30,06,49,12.30
2007,05,30,06,50,12.30
2007,05,30,06,51,12.30
2007,05,30,06,52,12.30
2007,05,30,06,53,12.40
2007,05,30,06,54,12.40
2007,05,30,06,55,12.40
2007,05,30,06,56,12.40
2007,05,30,06,57,12.50
2007,05,30,06,58,12.50
2007,05,30,06,59,12.50
2007,05,30,07,00,12.50
2007,05,30,07,01,12.50
2007,05,30,07,02,12.60
2007,05,30,07,03,12.70
2007,05,30,07,04,12.80
2007,05,30,07,05,12.80
2007,05,30,07,06,12.80
2007,05,30,07,07,12.90
2007,05,30,07,08,12.90
2007,05,30,07,09,12.90
2007,05,30,07,10,13.00
2007,05,30,07,11,13.10
2007,05,30,07,12,13.10
2007,05,30,07,13,13.20
2007,05,30,07,14,13.30
2007,05,30,07,15,13.30
2007,05,30,07,16,13.30
2007,05,30,07,17,13.30
2007,05,30,07,18,13.30
2007,05,30,07,19,13.30
2007,05,30,07,20,13.30
2007,05,30,07,21,13.30
2007,05,30,07,22,13.40
2007,05,30,07,23,13.40
2007,05,30,07,24,13.40
2007,05,30,07,25,13.40
2007,05,30,07,26,13.40
2007,05,30,07,27,13.40
2007,05,30,07,28,13.40
2007,05,30,07,29,13.40
2007,05,30,07,30,13.40
2007,05,30,07,31,13.50
2007,05,30,07,32,13.50
2007,05,30,07,33,13.50
2007,05,30,07,34,13.50
2007,05,30,07,35,13.50
2007,05,30,07,36,13.50
2007,05,30,07,37,13.40
2007,05,30,07,38,13.50
2007,05,30,07,39,13.50
2007,05,30,07,40,13.50
2007,05,30,07,41,13.50
2007,05,30,07,42,13.50
2007,05,30,07,43,13.40
2007,05,30,07,44,13.40
2007,05,30,07,45,13.50
2007,05,30,07,46,13.50
2007,05,30,07,47,13.50
2007,05,30,07,48,13.40
2007,05,30,07,49,13.40
2007,05,30,07,50,13.40
2007,05,30,07,51,13.30
2007,05,30,07,52,13.30
2007,05,30,07,53,13.30
2007,05,30,07,54,13.30
2007,05,30,07,55,13.30
2007,05,30,07,56,13.30
2007,05,30,07,57,13.30
2007,05,30,07,58,13.30
2007,05,30,07,59,13.30
2007,05,30,08,00,13.30
2007,05,30,08,01,13.30
2007,05,30,08,02,13.40
2007,05,30,08,03,13.40
2007,05,30,08,04,13.50
2007,05,30,08,05,13.50
2007,05,30,08,06,13.60
2007,05,30,08,07,13.70
2007,05,30,08,08,13.70
2007,05,30,08,09,13.70
2007,05,30,08,10,13.80
2007,05,30,08,11,13.80
2007,05,30,08,12,13.90
2007,05,30,08,13,14.00
2007,05,30,08,14,14.10
2007,05,30,08,15,14.20
2007,05,30,08,16,14.30
2007,05,30,08,17,14.40
2007,05,30,08,18,14.50
2007,05,30,08,19,14.60
2007,05,30,08,20,14.70
2007,05,30,08,21,14.70
2007,05,30,08,22,14.80
2007,05,30,08,23,14.80
2007,05,30,08,24,14.80
2007,05,30,08,25,14.80
2007,05,30,08,26,14.90
2007,05,30,08,27,14.90
2007,05,30,08,28,14.90
2007,05,30,08,29,14.90
2007,05,30,08,30,14.90
2007,05,30,08,31,14.80
2007,05,30,08,32,14.70
2007,05,30,08,33,14.60
2007,05,30,08,34,14.50
2007,05,30,08,35,14.30
2007,05,30,08,36,14.20
2007,05,30,08,37,14.20
2007,05,30,08,38,14.20
2007,05,30,08,39,14.20
2007,05,30,08,40,14.20
2007,05,30,08,41,14.00
2007,05,30,08,42,14.00
2007,05,30,08,43,13.90
2007,05,30,08,44,13.90
2007,05,30,08,45,13.90
2007,05,30,08,46,13.90
2007,05,30,08,47,13.90
2007,05,30,08,48,14.00
2007,05,30,08,49,14.00
2007,05,30,08,50,14.00
2007,05,30,08,51,14.00
2007,05,30,08,52,13.90
2007,05,30,08,53,13.90
2007,05,30,08,54,13.90
2007,05,30,08,55,13.90
2007,05,30,08,56,14.00
2007,05,30,08,57,14.00
2007,05,30,08,58,14.10
2007,05,30,08,59,14.20
2007,05,30,09,00,14.20
2007,05,30,09,01,14.20
2007,05,30,09,02,14.30
2007,05,30,09,03,14.30
2007,05,30,09,04,14.30
2007,05,30,09,05,14.20
2007,05,30,09,06,14.10
2007,05,30,09,07,14.10
2007,05,30,09,08,14.10
2007,05,30,09,09,14.00
2007,05,30,09,10,13.90
2007,05,30,09,11,13.80
2007,05,30,09,12,13.70
2007,05,30,09,13,13.70
2007,05,30,09,14,13.70
2007,05,30,09,15,13.70
2007,05,30,09,16,13.70
2007,05,30,09,17,13.70
2007,05,30,09,18,13.70
2007,05,30,09,19,13.70
2007,05,30,09,20,13.70
2007,05,30,09,21,13.70
2007,05,30,09,22,13.70
2007,05,30,09,23,13.70
2007,05,30,09,24,13.60
2007,05,30,09,25,13.60
2007,05,30,09,26,13.70
2007,05,30,09,27,13.70
2007,05,30,09,28,13.70
2007,05,30,09,29,13.70
2007,05,30,09,30,13.70
2007,05,30,09,31,13.80
2007,05,30,09,32,13.80
2007,05,30,09,33,13.80
2007,05,30,09,34,13.80
2007,05,30,09,35,13.80
2007,05,30,09,36,13.80
2007,05,30,09,37,13.90
2007,05,30,09,38,13.80
2007,05,30,09,39,13.80
2007,05,30,09,40,13.80
2007,05,30,09,41,13.90
2007,05,30,09,42,13.90
2007,05,30,09,43,14.00
2007,05,30,09,44,14.00
2007,05,30,09,45,14.10
2007,05,30,09,46,14.20
2007,05,30,09,47,14.20
2007,05,30,09,48,14.20
2007,05,30,09,49,14.20
2007,05,30,09,50,14.20
2007,05,30,09,51,14.20
2007,05,30,09,52,14.30
2007,05,30,09,53,14.40
2007,05,30,09,54,14.40
2007,05,30,09,55,14.30
2007,05,30,09,56,14.20
2007,05,30,09,57,14.10
2007,05,30,09,58,14.00
2007,05,30,09,59,14.00
2007,05,30,10,00,14.10
2007,05,30,10,01,14.10
2007,05,30,10,02,14.10
2007,05,30,10,03,14.10
2007,05,30,10,04,14.10
2007,05,30,10,05,14.10
2007,05,30,10,06,14.00
2007,05,30,10,07,13.90
2007,05,30,10,08,13.90
2007,05,30,10,09,13.90
2007,05,30,10,10,13.90
2007,05,30,10,11,13.80
2007,05,30,10,12,13.90
2007,05,30,10,13,13.90
2007,05,30,10,14,14.00
2007,05,30,10,15,14.00
2007,05,30,10,16,14.00
2007,05,30,10,17,14.00
2007,05,30,10,18,14.10
2007,05,30,10,19,14.10
2007,05,30,10,20,14.20
2007,05,30,10,21,14.20
2007,05,30,10,22,14.20
2007,05,30,10,23,14.20
2007,05,30,10,24,14.20
2007,05,30,10,25,14.30
2007,05,30,10,26,14.30
2007,05,30,10,27,14.30
2007,05,30,10,28,14.30
2007,05,30,10,29,14.30
2007,05,30,10,30,14.30
2007,05,30,10,31,14.40
2007,05,30,10,32,14.40
2007,05,30,10,33,14.40
2007,05,30,10,34,14.50
2007,05,30,10,35,14.50
2007,05,30,10,36,14.50
2007,05,30,10,37,14.40
2007,05,30,10,38,14.30
2007,05,30,10,39,14.20
2007,05,30,10,40,14.10
2007,05,30,10,41,14.00
2007,05,30,10,42,14.00
2007,05,30,10,43,13.90
2007,05,30,10,44,13.90
2007,05,30,10,45,13.80
2007,05,30,10,46,13.70
2007,05,30,10,47,13.80
2007,05,30,10,48,13.80
2007,05,30,10,49,13.80
2007,05,30,10,50,13.80
2007,05,30,10,51,13.70
2007,05,30,10,52,13.70
2007,05,30,10,53,13.70
2007,05,30,10,54,13.70
2007,05,30,10,55,13.70
2007,05,30,10,56,13.70
2007,05,30,10,57,13.70
2007,05,30,10,58,13.70
2007,05,30,10,59,13.70
2007,05,30,11,00,13.70
2007,05,30,11,01,13.70
2007,05,30,11,02,13.80
2007,05,30,11,03,13.90
2007,05,30,11,04,14.00
2007,05,30,11,05,14.00
2007,05,30,11,06,14.10
2007,05,30,11,07,14.10
2007,05,30,11,08,14.10
2007,05,30,11,09,14.10
2007,05,30,11,10,14.20
2007,05,30,11,11,14.20
2007,05,30,11,12,14.30
2007,05,30,11,13,14.30
2007,05,30,11,14,14.30
2007,05,30,11,15,14.30
2007,05,30,11,16,14.30
2007,05,30,11,17,14.30
2007,05,30,11,18,14.40
2007,05,30,11,19,14.50
2007,05,30,11,20,14.50
2007,05,30,11,21,14.50
2007,05,30,11,22,14.60
2007,05,30,11,23,14.70
2007,05,30,11,24,14.70
2007,05,30,11,25,14.70
2007,05,30,11,26,14.70
2007,05,30,11,27,14.80
2007,05,30,11,28,14.70
2007,05,30,11,29,14.80
2007,05,30,11,30,14.80
2007,05,30,11,31,14.80
2007,05,30,11,32,14.80
2007,05,30,11,33,14.80
2007,05,30,11,34,14.80
2007,05,30,11,35,14.80
2007,05,30,11,36,14.70
2007,05,30,11,37,14.60
2007,05,30,11,38,14.60
2007,05,30,11,39,14.50
2007,05,30,11,40,14.60
2007,05,30,11,41,14.70
2007,05,30,11,42,14.70
2007,05,30,11,43,14.60
2007,05,30,11,44,14.60
2007,05,30,11,45,14.60
2007,05,30,11,46,14.60
2007,05,30,11,47,14.60
2007,05,30,11,48,14.50
2007,05,30,11,49,14.60
2007,05,30,11,50,14.60
2007,05,30,11,51,14.60
2007,05,30,11,52,14.60
2007,05,30,11,53,14.60
2007,05,30,11,54,14.60
2007,05,30,11,55,14.60
2007,05,30,11,56,14.60
2007,05,30,11,57,14.70
2007,05,30,11,58,14.70
2007,05,30,11,59,14.60
2007,05,30,12,00,14.70
2007,05,30,12,01,14.80
2007,05,30,12,02,14.80
2007,05,30,12,03,14.80
2007,05,30,12,04,15.00
2007,05,30,12,05,15.00
2007,05,30,12,06,15.00
2007,05,30,12,07,15.00
2007,05,30,12,08,14.90
2007,05,30,12,09,14.90
2007,05,30,12,10,14.90
2007,05,30,12,11,15.00
2007,05,30,12,12,15.00
2007,05,30,12,13,15.10
2007,05,30,12,14,15.20
2007,05,30,12,15,15.30
2007,05,30,12,16,15.40
2007,05,30,12,17,15.40
2007,05,30,12,18,15.50
2007,05,30,12,19,15.60
2007,05,30,12,20,15.60
2007,05,30,12,21,15.50
2007,05,30,12,22,15.40
2007,05,30,12,23,15.30
2007,05,30,12,24,15.30
2007,05,30,12,25,15.30
2007,05,30,12,26,15.20
2007,05,30,12,27,15.10
2007,05,30,12,28,15.00
2007,05,30,12,29,15.00
2007,05,30,12,30,14.90
2007,05,30,12,31,14.80
2007,05,30,12,32,14.80
2007,05,30,12,33,14.70
2007,05,30,12,34,14.70
2007,05,30,12,35,14.70
2007,05,30,12,36,14.60
2007,05,30,12,37,14.70
2007,05,30,12,38,14.70
2007,05,30,12,39,14.70
2007,05,30,12,40,14.80
2007,05,30,12,41,14.80
2007,05,30,12,42,14.90
2007,05,30,12,43,14.90
2007,05,30,12,44,14.80
2007,05,30,12,45,14.90
2007,05,30,12,46,15.00
2007,05,30,12,47,15.10
2007,05,30,12,48,15.20
2007,05,30,12,49,15.20
2007,05,30,12,50,15.30
2007,05,30,12,51,15.20
2007,05,30,12,52,15.30
2007,05,30,12,53,15.30
2007,05,30,12,54,15.40
2007,05,30,12,55,15.50
2007,05,30,12,56,15.60
2007,05,30,12,57,15.70
2007,05,30,12,58,15.70
2007,05,30,12,59,15.70
2007,05,30,13,00,15.60
2007,05,30,13,01,15.60
2007,05,30,13,02,15.60
2007,05,30,13,03,15.60
2007,05,30,13,04,15.60
2007,05,30,13,05,15.70
2007,05,30,13,06,15.80
2007,05,30,13,07,15.80
2007,05,30,13,08,15.80
2007,05,30,13,09,15.80
2007,05,30,13,10,15.80
2007,05,30,13,11,15.90
2007,05,30,13,12,16.00
2007,05,30,13,13,16.10
2007,05,30,13,14,16.10
2007,05,30,13,15,16.10
2007,05,30,13,16,16.10
2007,05,30,13,17,16.10
2007,05,30,13,18,16.10
2007,05,30,13,19,16.20
2007,05,30,13,20,16.30
2007,05,30,13,21,16.40
2007,05,30,13,22,16.60
2007,05,30,13,23,16.70
2007,05,30,13,24,16.70
2007,05,30,13,25,16.70
2007,05,30,13,26,16.70
2007,05,30,13,27,16.70
2007,05,30,13,28,16.60
2007,05,30,13,29,16.60
2007,05,30,13,30,16.60
2007,05,30,13,31,16.70
2007,05,30,13,32,16.70
2007,05,30,13,33,16.80
2007,05,30,13,34,16.80
2007,05,30,13,35,16.70
2007,05,30,13,36,16.70
2007,05,30,13,37,16.60
2007,05,30,13,38,16.60
2007,05,30,13,39,16.60
2007,05,30,13,40,16.80
2007,05,30,13,41,16.90
2007,05,30,13,42,17.10
2007,05,30,13,43,17.20
2007,05,30,13,44,17.10
2007,05,30,13,45,17.20
2007,05,30,13,46,17.30
2007,05,30,13,47,17.20
2007,05,30,13,48,17.10
2007,05,30,13,49,17.10
2007,05,30,13,50,17.10
2007,05,30,13,51,17.20
2007,05,30,13,52,17.20
2007,05,30,13,53,17.20
2007,05,30,13,54,17.30
2007,05,30,13,55,17.30
2007,05,30,13,56,17.30
2007,05,30,13,57,17.30
2007,05,30,13,58,17.30
2007,05,30,13,59,17.30
2007,05,30,14,00,17.30
2007,05,30,14,01,17.20
2007,05,30,14,02,17.10
2007,05,30,14,03,17.10
2007,05,30,14,04,17.10
2007,05,30,14,05,17.20
2007,05,30,14,06,17.20
2007,05,30,14,07,17.20
2007,05,30,14,08,17.30
2007,05,30,14,09,17.40
2007,05,30,14,10,17.50
2007,05,30,14,11,17.40
2007,05,30,14,12,17.40
2007,05,30,14,13,17.40
2007,05,30,14,14,17.30
2007,05,30,14,15,17.30
2007,05,30,14,16,17.30
2007,05,30,14,17,17.30
2007,05,30,14,18,17.30
2007,05,30,14,19,17.30
2007,05,30,14,20,17.20
2007,05,30,14,21,17.20
2007,05,30,14,22,17.20
2007,05,30,14,23,17.20
2007,05,30,14,24,17.20
2007,05,30,14,25,17.20
2007,05,30,14,26,17.30
2007,05,30,14,27,17.30
2007,05,30,14,28,17.40
2007,05,30,14,29,17.40
2007,05,30,14,30,17.30
2007,05,30,14,31,17.40
2007,05,30,14,32,17.40
2007,05,30,14,33,17.50
2007,05,30,14,34,17.60
2007,05,30,14,35,17.70
2007,05,30,14,36,17.70
2007,05,30,14,37,17.60
2007,05,30,14,38,17.50
2007,05,30,14,39,17.40
2007,05,30,14,40,17.30
2007,05,30,14,41,17.30
2007,05,30,14,42,17.30
2007,05,30,14,43,17.20
2007,05,30,14,44,17.20
2007,05,30,14,45,17.20
2007,05,30,14,46,17.20
2007,05,30,14,47,17.20
2007,05,30,14,48,17.20
2007,05,30,14,49,17.20
2007,05,30,14,50,17.30
2007,05,30,14,51,17.30
2007,05,30,14,52,17.30
2007,05,30,14,53,17.30
2007,05,30,14,54,17.30
2007,05,30,14,55,17.30
2007,05,30,14,56,17.30
2007,05,30,14,57,17.40
2007,05,30,14,58,17.50
2007,05,30,14,59,17.60
2007,05,30,15,00,17.70
2007,05,30,15,01,17.70
2007,05,30,15,02,17.70
2007,05,30,15,03,17.60
2007,05,30,15,04,17.50
2007,05,30,15,05,17.30
2007,05,30,15,06,17.20
2007,05,30,15,07,17.20
2007,05,30,15,08,17.20
2007,05,30,15,09,17.30
2007,05,30,15,10,17.20
2007,05,30,15,11,17.10
2007,05,30,15,12,17.00
2007,05,30,15,13,17.00
2007,05,30,15,14,16.90
2007,05,30,15,15,16.80
2007,05,30,15,16,16.90
2007,05,30,15,17,16.90
2007,05,30,15,18,16.90
2007,05,30,15,19,16.90
2007,05,30,15,20,16.80
2007,05,30,15,21,16.80
2007,05,30,15,22,16.80
2007,05,30,15,23,16.80
2007,05,30,15,24,16.70
2007,05,30,15,25,16.70
2007,05,30,15,26,16.60
2007,05,30,15,27,16.40
2007,05,30,15,28,16.40
2007,05,30,15,29,16.30
2007,05,30,15,30,16.40
2007,05,30,15,31,16.40
2007,05,30,15,32,16.30
2007,05,30,15,33,16.30
2007,05,30,15,34,16.30
2007,05,30,15,35,16.30
2007,05,30,15,36,16.30
2007,05,30,15,37,16.30
2007,05,30,15,38,16.20
2007,05,30,15,39,16.20
2007,05,30,15,40,16.20
2007,05,30,15,41,16.10
2007,05,30,15,42,16.20
2007,05,30,15,43,16.30
2007,05,30,15,44,16.40
2007,05,30,15,45,16.60
2007,05,30,15,46,16.40
2007,05,30,15,47,16.40
2007,05,30,15,48,16.40
2007,05,30,15,49,16.40
2007,05,30,15,50,16.40
2007,05,30,15,51,16.40
2007,05,30,15,52,16.40
2007,05,30,15,53,16.50
2007,05,30,15,54,16.60
2007,05,30,15,55,16.60
2007,05,30,15,56,16.70
2007,05,30,15,57,16.90
2007,05,30,15,58,16.90
2007,05,30,15,59,17.00
2007,05,30,16,00,17.00
2007,05,30,16,01,17.10
2007,05,30,16,02,17.30
2007,05,30,16,03,17.30
2007,05,30,16,04,17.30
2007,05,30,16,05,17.30
2007,05,30,16,06,17.40
2007,05,30,16,07,17.40
2007,05,30,16,08,17.40
2007,05,30,16,09,17.40
2007,05,30,16,10,17.40
2007,05,30,16,11,17.40
2007,05,30,16,12,17.40
2007,05,30,16,13,17.40
2007,05,30,16,14,17.30
2007,05,30,16,15,17.30
2007,05,30,16,16,17.30
2007,05,30,16,17,17.30
2007,05,30,16,18,17.30
2007,05,30,16,19,17.20
2007,05,30,16,20,17.20
2007,05,30,16,21,17.30
2007,05,30,16,22,17.30
2007,05,30,16,23,17.30
2007,05,30,16,24,17.40
2007,05,30,16,25,17.40
2007,05,30,16,26,17.50
2007,05,30,16,27,17.50
2007,05,30,16,28,17.50
2007,05,30,16,29,17.50
2007,05,30,16,30,17.40
2007,05,30,16,31,17.30
2007,05,30,16,32,17.30
2007,05,30,16,33,17.30
2007,05,30,16,34,17.30
2007,05,30,16,35,17.30
2007,05,30,16,36,17.50
2007,05,30,16,37,17.70
2007,05,30,16,38,17.90
2007,05,30,16,39,18.00
2007,05,30,16,40,18.10
2007,05,30,16,41,18.10
2007,05,30,16,42,18.00
2007,05,30,16,43,18.10
2007,05,30,16,44,18.10
2007,05,30,16,45,18.00
2007,05,30,16,46,17.90
2007,05,30,16,47,17.90
2007,05,30,16,48,17.80
2007,05,30,16,49,17.80
2007,05,30,16,50,17.90
2007,05,30,16,51,17.90
2007,05,30,16,52,17.80
2007,05,30,16,53,17.80
2007,05,30,16,54,17.80
2007,05,30,16,55,17.70
2007,05,30,16,56,17.50
2007,05,30,16,57,17.40
2007,05,30,16,58,17.40
2007,05,30,16,59,17.30
2007,05,30,17,00,17.30
2007,05,30,17,01,17.30
2007,05,30,17,02,17.20
2007,05,30,17,03,17.30
2007,05,30,17,04,17.30
2007,05,30,17,05,17.30
2007,05,30,17,06,17.30
2007,05,30,17,07,17.30
2007,05,30,17,08,17.30
2007,05,30,17,09,17.20
2007,05,30,17,10,17.10
2007,05,30,17,11,17.00
2007,05,30,17,12,16.90
2007,05,30,17,13,16.70
2007,05,30,17,14,16.50
2007,05,30,17,15,16.30
2007,05,30,17,16,16.10
2007,05,30,17,17,15.70
2007,05,30,17,18,15.40
2007,05,30,17,19,15.10